Wind_Speed
10 11 11 11 13 14 15 18 19 20 20 20 21 21 21 21 22 23 23 22 21 21 20 21 21 20 18 16 15 14 14 15 16 16 16 17 17 18 19 19 19 19 18 17 17 17 16 15 14
8 9 9 10 10 11 14 16 18 18 20 21 21 21 22 22 23 24 23 22 22 22 22 22 21 19 17 16 16 16 17 18 18 18 19 20 20 21 21 21 21 20 20 19 19 19 18 16 14
7 8 8 10 11 13 15 16 17 20 20 20 20 20 21 22 23 24 23 23 23 24 23 21 19 17 17 18 19 19 19 19 20 20 21 21 22 22 22 22 22 22 22 21 21 21 19 16 14
5 5 7 10 13 15 17 17 18 18 18 18 17 17 19 20 22 23 23 24 24 24 22 19 19 19 20 21 22 23 23 23 22 22 22 23 23 23 23 23 23 23 23 23 23 22 20 17 14
7 6 7 9 11 13 14 14 16 17 16 16 17 17 19 21 22 24 24 24 23 22 21 21 21 22 23 23 24 24 25 25 25 25 25 25 25 25 24 24 24 25 25 24 24 22 21 19 16
11 11 11 12 12 12 13 14 16 17 17 17 17 17 20 21 21 21 22 21 22 22 23 23 24 24 25 26 26 26 26 26 26 26 27 28 28 27 27 27 27 27 27 25 24 23 22 20 18
13 13 14 14 14 14 15 16 17 18 18 19 19 19 21 22 22 23 24 24 25 25 25 26 26 27 27 28 28 28 29 28 28 28 28 28 28 28 29 29 29 28 26 26 25 24 23 22 20
16 16 17 17 17 17 18 19 20 20 21 22 23 23 24 26 25 25 26 27 27 27 27 27 28 28 28 28 28 28 28 28 28 29 29 29 29 29 28 28 28 27 26 26 25 25 25 24 23
17 18 20 19 19 19 20 20 21 22 22 23 25 26 27 26 26 26 26 26 27 27 27 26 26 27 26 26 26 26 26 27 27 28 29 30 30 29 29 29 28 28 28 27 27 28 28 28 28
16 17 19 18 18 18 19 20 20 20 20 23 25 25 24 24 24 24 24 24 24 24 24 24 24 25 25 26 26 26 26 26 27 28 29 30 31 31 31 31 31 31 32 32 32 32 33 33 33
14 16 17 17 18 18 19 19 19 18 20 24 23 21 21 21 21 21 22 23 23 24 25 25 26 27 28 28 29 30 30 30 31 31 32 32 33 34 35 35 35 36 37 37 37 38 38 39 39
14 17 17 18 18 17 17 18 19 19 22 22 20 20 22 22 22 22 23 24 25 26 27 27 27 28 29 30 31 32 33 34 35 36 37 37 38 40 41 41 41 42 42 43 43 44 44 44 45
12 14 15 16 17 16 16 17 18 21 23 23 23 23 24 24 24 24 25 25 25 25 25 26 27 29 30 31 31 32 32 33 34 36 37 38 40 41 43 44 44 45 45 46 47 48 49 49 49
13 15 17 17 18 16 16 17 20 23 26 28 28 28 27 26 25 25 25 25 25 25 27 29 31 33 35 36 36 36 36 37 38 39 39 40 40 41 42 43 44 44 45 45 46 48 50 52 52
16 17 20 22 22 21 21 21 25 27 28 29 30 29 27 27 27 27 27 27 28 30 32 33 35 38 40 41 42 42 43 43 44 45 45 46 45 45 46 47 47 47 46 47 48 48 50 51 52
21 21 23 26 25 25 24 21 29 32 28 29 31 30 29 29 29 29 30 31 33 35 37 39 41 43 44 46 46 47 48 48 49 49 50 51 51 51 51 51 50 49 49 50 50 49 50 50 51
24 24 25 28 27 26 26 23 29 32 28 27 28 28 29 30 31 32 34 36 39 41 43 45 46 48 49 51 51 52 52 52 52 53 53 53 54 55 55 54 52 51 51 51 51 50 51 51 52
24 24 24 25 25 24 22 21 25 25 24 24 25 27 29 32 36 39 42 43 45 46 47 48 50 51 53 54 56 56 56 55 55 56 56 56 56 55 56 56 54 52 51 49 50 51 51 52 53
21 21 21 22 21 18 16 19 22 23 26 28 30 33 37 41 45 47 47 47 48 48 49 49 51 52 54 56 57 59 59 58 58 57 57 57 56 54 54 53 52 51 50 50 50 52 53 53 53
19 18 18 18 20 19 19 24 27 28 30 34 39 43 46 49 51 51 51 51 51 51 51 51 51 53 54 56 58 59 59 59 59 58 57 56 55 54 53 52 50 50 50 50 51 52 53 54 54
17 17 18 20 22 25 28 32 36 37 41 45 48 51 53 55 55 53 52 52 53 53 54 54 53 53 54 55 57 58 59 59 59 58 57 57 55 54 54 53 51 50 50 51 52 53 53 53 53
19 22 24 26 29 32 35 41 45 48 50 53 56 57 58 60 60 59 58 58 59 60 59 59 58 58 57 56 56 58 58 59 60 59 57 57 56 54 55 55 54 52 52 53 53 53 54 54 52
24 27 30 33 36 39 42 46 50 53 56 58 60 60 61 61 61 62 63 65 66 67 68 67 67 66 64 62 60 60 60 61 61 59 58 57 56 56 54 53 52 51 51 52 53 53 55 56 54
29 31 34 37 40 43 46 50 54 56 58 58 58 59 60 62 64 67 71 74 75 75 75 76 75 73 70 66 63 62 62 62 61 60 58 56 55 55 52 52 51 51 51 51 52 53 53 55 55
34 37 40 43 46 48 51 54 57 57 57 57 58 62 65 68 72 75 78 81 83 82 80 79 77 74 70 67 64 62 61 61 61 59 57 54 53 51 51 51 50 50 50 50 50 51 52 54 54
38 41 44 47 50 52 53 54 55 57 60 62 66 70 74 77 80 83 84 86 85 84 81 77 73 69 65 62 59 58 57 59 58 56 53 51 50 49 49 48 47 47 49 49 50 51 50 51 51
44 47 49 51 52 52 52 55 58 62 65 70 74 77 80 82 85 87 86 84 81 78 74 71 66 62 58 56 54 53 53 55 54 52 49 48 48 47 47 46 44 45 48 50 52 51 51 49 48
47 48 48 50 53 54 55 62 66 69 73 76 80 82 84 86 86 84 81 77 72 67 63 60 58 55 52 51 52 52 53 54 52 48 44 45 45 45 45 43 41 41 43 46 48 49 49 49 47
47 47 48 51 55 60 63 65 70 72 76 81 83 83 83 81 77 73 69 65 61 56 53 51 50 50 50 51 54 55 55 53 51 48 47 46 46 45 44 43 43 43 43 43 44 45 46 46 45
46 48 51 54 58 62 67 72 74 75 79 81 79 76 72 67 63 61 60 61 59 55 51 48 48 48 51 54 57 58 57 54 53 51 47 43 42 42 42 42 43 43 42 41 41 41 41 41 40
Wind_Direction
245 235 226 224 220 218 220 220 220 223 229 231 234 235 240 246 250 256 261 265 270 274 275 276 277 278 274 270 272 276 278 275 271 268 266 265 267 271 275 276 279 284 286 287 288 294 299 295 287
242 232 219 214 212 208 213 217 222 227 231 233 236 240 246 251 256 260 264 270 275 277 278 277 278 273 268 269 273 275 277 277 275 273 270 268 268 271 272 273 278 283 286 287 289 294 298 296 283
237 227 211 203 202 205 212 218 225 230 233 236 241 247 253 257 260 264 269 273 277 280 280 277 273 271 272 275 277 278 277 277 277 276 274 272 272 272 272 274 278 282 285 287 288 291 294 291 279
231 220 212 205 204 210 216 222 231 238 244 249 252 255 258 262 267 272 276 279 281 282 279 276 276 278 280 281 282 282 282 280 278 276 275 275 274 273 272 274 277 281 283 285 287 287 287 284 276
246 236 223 215 216 221 225 233 242 249 251 255 259 263 265 269 273 277 281 282 281 279 278 279 280 281 280 280 280 280 280 280 279 277 275 273 273 273 274 275 277 280 281 282 281 280 279 277 272
249 246 242 238 234 236 237 243 250 255 258 260 264 266 267 269 272 274 275 275 274 275 276 277 278 278 278 278 278 277 277 276 275 274 274 274 273 273 274 274 275 276 276 275 273 271 270 269 268
253 251 249 248 247 248 250 253 257 260 263 265 266 265 266 265 265 267 269 272 274 276 278 279 280 279 279 278 278 276 274 273 271 270 269 270 271 271 271 272 272 271 270 268 266 265 265 266 265
258 259 259 257 256 258 260 262 265 267 269 270 269 266 265 268 269 269 271 274 278 280 281 280 280 278 277 275 274 274 273 272 270 269 268 267 267 267 268 269 269 268 266 264 263 263 264 266 265
262 262 263 264 264 265 266 267 268 272 275 275 273 273 273 272 271 270 270 272 274 276 276 276 275 275 275 274 272 270 270 270 270 270 270 269 269 267 266 265 265 265 263 262 262 263 264 265 265
267 267 269 271 271 272 272 273 274 274 275 273 271 275 276 274 270 268 267 267 269 271 273 274 274 273 273 273 273 272 271 271 270 270 270 270 270 268 266 266 265 263 262 262 262 263 264 264 265
272 273 275 274 273 272 272 272 271 269 265 266 273 278 277 275 274 273 272 272 273 273 275 276 277 276 276 276 276 275 274 272 270 269 268 267 267 266 266 266 266 266 265 265 265 265 265 266 266
276 277 279 278 276 272 268 267 267 265 261 266 274 273 270 272 274 275 275 276 278 280 283 285 285 285 285 284 283 281 278 276 274 272 271 269 268 266 266 267 267 267 267 268 268 267 266 266 266
291 291 289 285 282 277 270 265 261 261 265 269 271 270 270 271 271 272 273 276 281 285 290 291 292 292 291 290 289 287 285 281 278 277 276 274 273 272 270 269 269 270 271 271 271 271 270 268 267
298 296 294 290 285 280 276 271 267 265 268 271 273 273 272 272 273 275 277 281 286 290 292 294 294 294 292 290 289 289 288 286 284 283 282 281 280 279 277 275 274 273 272 271 271 272 272 271 270
297 295 292 289 286 284 282 285 282 275 273 274 275 276 277 279 281 282 284 287 291 293 293 292 292 291 289 288 287 286 285 285 285 284 284 284 284 283 281 279 278 278 278 276 272 270 270 270 270
296 294 293 291 292 290 289 290 285 280 281 279 279 280 282 283 284 285 287 290 291 291 289 288 288 287 286 284 282 282 283 283 284 283 282 282 283 284 283 281 280 280 280 277 274 271 269 268 267
294 292 293 294 295 293 292 288 281 284 285 281 281 283 285 286 288 289 290 291 291 289 287 285 285 284 283 282 280 279 279 280 281 281 279 279 279 281 281 280 279 279 278 275 274 272 271 269 266
294 292 292 292 293 293 291 287 282 283 283 282 282 284 286 288 289 291 292 292 291 290 288 287 286 284 283 281 281 280 279 279 279 279 278 277 277 277 278 278 277 277 275 273 272 271 270 269 267
296 295 293 291 289 287 285 282 280 281 282 283 285 288 289 291 293 294 294 293 292 290 289 287 286 284 283 282 281 281 281 280 279 279 279 278 278 277 276 275 275 275 273 271 270 269 267 266 264
299 299 296 291 289 286 285 287 286 286 285 287 291 293 295 296 298 298 296 294 293 292 290 288 285 282 281 280 279 279 279 279 279 279 279 279 279 278 276 274 273 273 272 269 266 264 263 263 261
299 296 292 288 285 289 292 293 292 290 291 294 297 298 299 300 302 302 299 297 296 295 294 291 288 284 281 279 278 278 278 277 277 277 277 276 277 276 275 273 271 271 268 265 263 261 260 259 257
299 297 295 293 292 293 295 299 299 298 300 302 303 303 304 304 303 302 302 301 301 300 298 296 293 290 287 283 280 279 277 276 276 276 275 274 273 272 271 270 270 269 265 261 258 257 256 254 252
302 302 300 299 299 300 300 302 303 303 305 305 306 305 304 303 303 302 302 302 302 301 299 297 295 292 290 287 283 280 277 275 274 273 272 271 270 270 270 269 267 266 263 260 257 254 253 251 249
309 308 306 305 304 304 303 305 304 305 306 305 304 302 302 302 303 303 302 302 301 300 298 295 293 291 289 286 282 277 274 272 270 269 269 269 268 269 270 267 265 263 261 258 256 253 251 251 250
311 310 309 307 307 306 306 306 306 306 307 306 305 304 303 302 302 303 302 301 300 298 295 292 290 288 285 282 278 273 268 266 266 266 267 267 267 267 267 266 265 264 262 260 256 254 252 249 248
310 311 312 311 310 309 309 310 309 308 308 308 306 304 303 303 303 302 301 299 298 296 293 291 288 284 280 276 271 267 262 262 264 266 266 267 267 267 268 268 268 269 268 264 259 255 253 249 246
314 315 315 314 312 312 312 310 307 308 310 308 306 304 303 302 301 300 299 298 296 294 292 289 285 278 272 268 265 260 257 258 261 262 264 268 268 268 271 272 273 273 271 265 260 257 252 247 243
316 317 318 317 316 314 313 311 310 311 310 307 305 304 303 302 302 302 301 300 298 296 292 287 281 275 266 260 257 256 255 254 256 259 265 268 269 271 272 272 272 273 271 267 263 259 250 243 239
319 320 319 317 314 312 311 312 311 309 307 306 305 305 305 305 305 304 303 302 301 297 292 287 280 272 264 254 249 249 252 254 256 261 266 268 268 268 270 272 276 276 275 270 264 257 247 239 236
320 320 318 315 314 312 311 311 310 307 306 306 306 306 306 306 305 306 306 305 303 299 293 289 286 279 269 258 249 246 246 251 256 260 262 265 267 266 268 274 279 278 276 271 262 251 242 236 234
Height
5851 5851 5852 5854 5856 5857 5858 5860 5861 5862 5864 5864 5864 5864 5864 5864 5864 5865 5863 5861 5860 5860 5858 5858 5856 5855 5854 5853 5853 5852 5852 5851 5851 5850 5850 5850 5850 5849 5849 5849 5849 5849 5848 5848 5847 5847 5846 5845 5843
5850 5850 5851 5853 5854 5855 5856 5857 5858 5860 5860 5860 5860 5860 5860 5859 5859 5858 5857 5857 5856 5855 5854 5853 5852 5851 5850 5849 5849 5848 5848 5847 5847 5847 5846 5846 5846 5845 5845 5845 5845 5845 5845 5844 5844 5843 5842 5841 5840
5849 5850 5851 5851 5852 5853 5854 5855 5855 5856 5856 5857 5857 5857 5856 5856 5855 5854 5853 5853 5852 5851 5850 5849 5848 5847 5846 5845 5845 5844 5844 5843 5843 5842 5842 5842 5842 5842 5841 5841 5841 5840 5840 5840 5839 5838 5838 5838 5837
5849 5850 5850 5851 5851 5851 5851 5852 5853 5853 5854 5854 5854 5853 5852 5851 5851 5850 5849 5849 5848 5847 5845 5844 5844 5843 5842 5841 5841 5840 5840 5839 5839 5838 5838 5838 5837 5837 5837 5837 5836 5836 5836 5835 5835 5834 5834 5833 5833
5848 5849 5850 5850 5849 5849 5850 5850 5850 5850 5851 5850 5850 5849 5847 5847 5846 5846 5845 5844 5843 5842 5841 5840 5839 5838 5837 5837 5836 5835 5835 5834 5834 5833 5833 5833 5832 5832 5832 5832 5831 5831 5831 5830 5830 5830 5830 5830 5830
5846 5847 5848 5847 5847 5847 5847 5847 5847 5847 5847 5846 5846 5844 5843 5843 5841 5840 5839 5839 5838 5837 5836 5835 5834 5833 5832 5831 5831 5830 5830 5829 5828 5828 5828 5827 5827 5826 5826 5826 5826 5826 5826 5825 5825 5825 5825 5825 5826
5844 5844 5844 5844 5844 5844 5844 5844 5843 5842 5842 5842 5841 5840 5838 5838 5837 5835 5834 5833 5832 5832 5831 5830 5829 5828 5827 5826 5825 5824 5823 5823 5823 5822 5822 5822 5821 5821 5821 5820 5820 5820 5819 5819 5819 5819 5819 5820 5820
5841 5842 5841 5841 5841 5841 5841 5840 5839 5838 5838 5837 5836 5835 5834 5832 5831 5830 5829 5828 5827 5826 5825 5824 5822 5821 5820 5819 5819 5818 5817 5817 5817 5817 5816 5816 5816 5815 5815 5814 5814 5814 5814 5814 5814 5814 5814 5814 5815
5838 5839 5837 5838 5838 5837 5837 5836 5835 5834 5834 5832 5830 5829 5828 5827 5826 5825 5824 5823 5822 5821 5819 5818 5816 5815 5814 5813 5812 5812 5811 5811 5811 5810 5810 5810 5810 5809 5809 5809 5809 5809 5809 5809 5809 5809 5809 5809 5809
5834 5834 5834 5834 5834 5833 5832 5832 5831 5831 5829 5826 5824 5823 5822 5821 5820 5819 5818 5817 5816 5815 5814 5813 5812 5811 5810 5808 5807 5807 5806 5805 5805 5804 5804 5804 5804 5803 5803 5803 5803 5803 5803 5803 5803 5803 5803 5803 5803
5831 5831 5830 5830 5829 5828 5828 5827 5826 5825 5824 5820 5820 5819 5817 5816 5815 5813 5813 5812 5811 5810 5809 5808 5807 5806 5805 5804 5802 5801 5800 5799 5799 5798 5798 5797 5797 5797 5796 5796 5796 5796 5796 5796 5796 5796 5795 5795 5795
5828 5827 5826 5825 5824 5824 5824 5822 5821 5820 5818 5817 5816 5814 5812 5811 5810 5809 5808 5807 5806 5804 5804 5803 5801 5800 5798 5797 5796 5795 5794 5793 5792 5791 5791 5790 5789 5789 5788 5788 5787 5787 5787 5787 5787 5787 5787 5787 5787
5825 5824 5822 5821 5820 5820 5820 5819 5817 5816 5814 5812 5811 5809 5808 5807 5805 5804 5802 5801 5800 5799 5798 5797 5795 5794 5792 5790 5789 5788 5786 5785 5784 5783 5782 5781 5780 5780 5779 5778 5778 5777 5777 5777 5777 5776 5776 5776 5777
5823 5821 5819 5818 5817 5817 5817 5816 5814 5812 5810 5807 5806 5804 5803 5802 5800 5799 5797 5796 5795 5793 5792 5790 5788 5786 5785 5783 5781 5779 5778 5776 5775 5774 5773 5771 5770 5769 5769 5768 5767 5766 5766 5765 5765 5765 5764 5764 5765
5820 5819 5817 5815 5814 5814 5814 5813 5809 5806 5805 5803 5800 5799 5798 5797 5795 5793 5791 5790 5788 5786 5784 5782 5780 5778 5776 5774 5772 5770 5767 5766 5764 5763 5761 5760 5759 5758 5757 5756 5755 5754 5754 5753 5753 5753 5752 5753 5753
5817 5816 5814 5811 5810 5809 5811 5810 5802 5798 5799 5798 5795 5794 5793 5790 5789 5786 5784 5782 5780 5778 5775 5772 5770 5767 5765 5763 5760 5758 5756 5754 5752 5751 5749 5748 5747 5745 5744 5742 5741 5741 5740 5739 5740 5740 5739 5740 5740
5812 5811 5809 5807 5805 5804 5803 5802 5797 5793 5793 5792 5790 5788 5786 5784 5782 5779 5777 5775 5772 5769 5765 5762 5759 5755 5752 5749 5747 5745 5743 5741 5739 5737 5735 5734 5733 5732 5730 5728 5727 5726 5726 5725 5725 5726 5726 5726 5727
5807 5805 5803 5801 5799 5798 5796 5793 5790 5788 5787 5785 5784 5782 5780 5777 5775 5772 5768 5764 5761 5757 5753 5749 5745 5741 5738 5735 5732 5729 5727 5726 5724 5722 5720 5719 5717 5716 5714 5713 5712 5711 5711 5710 5710 5711 5712 5713 5714
5801 5799 5798 5796 5794 5793 5791 5787 5784 5783 5781 5780 5778 5775 5772 5769 5765 5760 5756 5752 5748 5743 5739 5735 5731 5726 5722 5719 5715 5712 5710 5708 5706 5704 5703 5702 5701 5699 5698 5697 5696 5696 5695 5695 5695 5696 5697 5698 5699
5796 5795 5793 5791 5788 5787 5786 5782 5779 5778 5776 5773 5770 5766 5761 5756 5752 5747 5742 5738 5733 5729 5724 5719 5715 5711 5706 5703 5699 5697 5694 5692 5690 5688 5686 5685 5684 5682 5681 5680 5680 5680 5679 5679 5680 5681 5682 5683 5684
5792 5790 5788 5787 5784 5782 5779 5775 5771 5769 5767 5763 5758 5753 5748 5742 5736 5732 5727 5721 5716 5712 5707 5702 5698 5694 5690 5686 5683 5680 5677 5675 5674 5672 5670 5669 5667 5666 5665 5664 5664 5664 5664 5664 5664 5665 5667 5668 5670
5788 5786 5784 5781 5778 5775 5773 5766 5761 5758 5755 5749 5743 5737 5731 5725 5719 5714 5708 5703 5698 5694 5689 5684 5680 5676 5672 5668 5665 5662 5659 5657 5656 5655 5653 5652 5651 5651 5650 5649 5648 5648 5648 5648 5649 5650 5651 5653 5655
5783 5781 5778 5774 5770 5768 5764 5759 5753 5747 5742 5735 5728 5721 5715 5709 5703 5697 5691 5686 5681 5676 5671 5666 5661 5657 5653 5649 5646 5643 5640 5638 5637 5636 5636 5635 5634 5634 5634 5633 5632 5632 5632 5632 5633 5635 5637 5638 5640
5777 5775 5772 5768 5764 5760 5754 5749 5742 5736 5729 5722 5715 5708 5700 5693 5686 5680 5673 5667 5662 5656 5650 5645 5640 5636 5632 5629 5627 5624 5621 5619 5618 5618 5618 5618 5618 5618 5618 5618 5617 5616 5616 5617 5618 5619 5621 5624 5626
5772 5768 5764 5759 5754 5750 5744 5736 5731 5723 5715 5708 5700 5692 5683 5676 5668 5661 5654 5647 5640 5633 5627 5621 5616 5613 5609 5607 5605 5604 5602 5600 5600 5601 5601 5602 5602 5603 5603 5602 5602 5602 5602 5602 5603 5604 5605 5608 5611
5765 5761 5756 5750 5744 5739 5732 5724 5718 5710 5701 5692 5684 5675 5666 5657 5649 5641 5632 5625 5617 5609 5602 5597 5592 5589 5586 5585 5585 5584 5584 5583 5584 5584 5585 5586 5587 5588 5588 5588 5587 5587 5587 5588 5588 5588 5590 5592 5596
5757 5752 5745 5739 5732 5728 5722 5714 5705 5696 5686 5677 5668 5659 5651 5642 5631 5622 5613 5604 5595 5588 5580 5574 5570 5567 5566 5565 5566 5567 5568 5568 5569 5570 5570 5571 5572 5573 5573 5573 5572 5572 5572 5571 5572 5573 5575 5578 5581
5749 5742 5736 5727 5720 5715 5714 5703 5690 5681 5672 5662 5651 5641 5631 5620 5609 5598 5589 5581 5574 5567 5560 5554 5548 5547 5547 5547 5549 5552 5554 5554 5554 5555 5556 5557 5558 5559 5559 5559 5558 5558 5558 5557 5557 5558 5560 5563 5567
5739 5733 5725 5718 5710 5701 5696 5695 5678 5668 5653 5642 5632 5619 5607 5596 5586 5577 5568 5561 5555 5549 5543 5537 5532 5529 5529 5529 5530 5534 5537 5539 5539 5541 5543 5544 5545 5546 5546 5546 5545 5545 5544 5544 5544 5544 5545 5549 5554
5729 5722 5714 5707 5698 5686 5677 5677 5660 5651 5636 5623 5612 5601 5591 5581 5571 5562 5553 5544 5538 5533 5527 5521 5516 5512 5511 5511 5512 5514 5519 5522 5525 5528 5531 5532 5532 5533 5533 5533 5532 5531 5531 5530 5531 5531 5533 5537 5542